Location: Unspecified
(51.0000°N, 12.0000°E)
Time: 12:46:19
(UTC+01:00)

POLYITAN 1 - Visible Passes

Search period start: 25 March 2019 00:00
Search period end: 04 April 2019 01:00
Orbit: 592 x 612 km, 97.9° (Epoch: 24 March)

Date Brightness Start Highest point End Pass type
(mag) Time Alt. Az. Time Alt. Az. Time Alt. Az.
25 Mar ? 01:22:39 10° N 01:23:42 17° N 01:23:42 17° N visible
26 Mar ? 01:34:32 10° N 01:35:44 18° N 01:35:44 18° N visible
27 Mar ? 00:10:37 10° NNE 00:10:58 12° NNE 00:10:58 12° NNE visible
27 Mar ? 01:46:29 10° N 01:47:46 18° NNW 01:47:46 18° NNW visible
28 Mar ? 00:22:17 10° NNE 00:23:00 14° NNE 00:23:00 14° NNE visible
28 Mar ? 01:58:27 10° N 01:59:48 17° NNW 01:59:48 17° NNW visible
29 Mar ? 00:34:00 10° NNE 00:35:02 17° NNE 00:35:02 17° NNE visible
29 Mar ? 02:10:29 10° NNW 02:11:50 16° NNW 02:11:50 16° NNW visible
30 Mar ? 00:45:45 10° NNE 00:47:04 19° NNE 00:47:04 19° NNE visible
30 Mar ? 02:22:36 10° NNW 02:23:52 14° NW 02:23:52 14° NW visible
31 Mar ? 00:57:32 10° NNE 00:59:05 22° NNE 00:59:05 22° NNE visible
31 Mar ? 03:34:52 10° NNW 03:35:54 12° NW 03:35:54 12° NW visible
01 Apr ? 02:09:21 10° N 02:11:07 24° N 02:11:07 24° N visible
01 Apr ? 03:47:31 10° NW 03:47:55 10° NW 03:47:55 10° NW visible
02 Apr ? 00:46:07 10° NE 00:46:21 11° NE 00:46:21 11° NE visible
02 Apr ? 02:21:12 10° N 02:23:09 25° N 02:23:09 25° N visible
03 Apr ? 00:57:38 10° NE 00:58:22 14° NE 00:58:22 14° NE visible
03 Apr ? 02:33:06 10° N 02:35:10 25° NNW 02:35:10 25° NNW visible
